Location: The D'Auria's Ocala Star Observatory
(29.0276°N, 82.1742°W)
Time: 12:37:22
(UTC-04:00)

Okean 3 Rocket - Visible Passes

Search period start: 21 July 2017 00:00
Search period end: 31 July 2017 00:00
Orbit: 614 x 646 km, 82.5° (Epoch: 21 July)

Date Brightness Start Highest point End Pass type
(mag) Time Alt. Az. Time Alt. Az. Time Alt. Az.
22 Jul 6.1 05:12:58 10° NNE 05:16:28 22° E 05:19:58 10° SE visible
23 Jul 4.5 05:33:06 10° N 05:37:26 50° E 05:41:45 10° SSE visible
24 Jul 3.5 05:53:52 10° NNW 05:58:16 68° W 06:02:42 10° S visible
25 Jul 6.4 04:38:12 10° NE 04:40:59 16° ENE 04:43:45 10° ESE visible
25 Jul 4.5 06:15:11 10° NNW 06:19:01 29° W 06:22:53 10° SSW visible
26 Jul 5.2 04:57:54 10° NNE 05:01:59 35° E 05:06:05 10° SSE visible
27 Jul 3.6 05:18:25 10° N 05:22:53 82° E 05:27:22 10° S visible
28 Jul 6.6 04:04:03 10° ENE 04:05:28 11° ENE 04:06:53 10° E visible
28 Jul 4.0 05:39:29 10° NNW 05:43:41 42° W 05:47:55 10° SSW visible
29 Jul 5.7 04:22:51 10° NNE 04:26:32 25° E 04:30:12 10° SE visible
29 Jul 5.0 06:01:15 10° NW 06:04:23 19° W 06:07:30 10° SW visible
30 Jul 4.2 04:43:05 10° N 04:47:29 56° E 04:49:45 27° SSE visible
